Regional Weather Roundup
Issued by NWS Newport/Morehead, NC

Current Version | Previous Version | Graphics & Text | Print | Product List | Glossary On
Versions: 1 2 3 4 5 6 7 8 9 10 11 12 13 14 15 16 17 18 19 20 21 22 23 24 25 26 27 28 29 30 31 32 33 34 35 36 37 38 39 40 41 42 43 44 45 46 47 48 49 50
000 ASUS42 KMHX 261813 RWRMHX WEATHER ROUNDUP FOR EASTERN NORTH CAROLINA NATIONAL WEATHER SERVICE NEWPORT/MOREHEAD CITY NC 100 PM EST SUN FEB 26 2017 NOTE: "FAIR" INDICATES FEW OR NO CLOUDS BELOW 12,000 FEET WITH NO SIGNIFICANT WEATHER AND/OR OBSTRUCTIONS TO VISIBILITY NCZ015>017-031-032-045>047-102-103-261900- NORTH COAST CITY SKY/WX TMP DP RH WIND PRES REMARKS EDENTON SUNNY 53 24 32 NW5 30.17S ELIZABETH CITY SUNNY 52 25 35 W9 30.15F KITTY HAWK NOT AVBL MANTEO SUNNY 51 29 43 NW8 30.16F $$ NCZ045>047-081-094-103-104-261900- CENTRAL COAST CITY SKY/WX TMP DP RH WIND PRES REMARKS FRISCO SUNNY 55 31 39 N8 30.15F $$ NCZ095-097-098-100-101-261900- SOUTHERN COAST CITY SKY/WX TMP DP RH WIND PRES REMARKS BEAUFORT SUNNY 57 26 30 N7 30.16F CEDAR ISLAND NOT AVBL JACKSONVILLE NOT AVBL PINEY ISLAND CLEAR N/A N/A N/A N7 30.16F WILMINGTON SUNNY 58 19 22 NW9 30.17F $$ NCZ011>013-027>030-043-044-078>080-089-090>093-098-261900- COASTAL PLAIN CITY SKY/WX TMP DP RH WIND PRES REMARKS AHOSKIE N/A 51 23 33 W3 30.17S CLINTON SUNNY 55 23 29 W8 30.19F ELIZABETHTOWN SUNNY 55 20 25 N5 30.19F GOLDSBORO SUNNY 55 14 19 W8 30.16S GREENVILLE SUNNY 54 19 26 NW7 30.18F HAVELOCK SUNNY 56 25 30 N6 30.17F KENANSVILLE SUNNY 55 16 21 W9 30.18F KINSTON SUNNY 55 16 21 NW7 30.18F NEW BERN SUNNY 57 23 26 NW6 30.17F RICHLANDS SUNNY 56 18 22 W5 30.18F ROCKY MOUNT SUNNY 51 19 28 SW7 30.17F WASHINGTON SUNNY 53 23 31 NW7 30.17S WHITEVILLE SUNNY 55 19 24 SW5 30.19F $$ AMZ130-135-150-152-154-156-158-170-250-252-270-ANZ085-086-088-633-658-670-261900- MARINE OBSERVATIONS STATION/POSITION TIME TEMP WIND PRES WAVE SWELL AIR SEA DIR/SP/G HT/PER HT/PER (UTC) (F) (DEG/KT/KT) (MB) (FT/S) (FT/S) CHESAPEAKE LIGHT NOT AVBL 64 E VA BEACH 1750 43 51 320/ 14/ 17 1020.8 6/ 7 3/ 7 DUCK 1748 44 49 30/ 9/ 11 1020.5 2 E DUCK NOT AVBL OREGON INLET 1742 47 58 30/ 10/ 12 1020.9 13E OREGON INLT NOT AVBL HATTERAS CG 1748 50 62 340/ 7/ 10 1020.8 DIAMOND BUOY 1750 51 72 330/ 8/ 14 1021.2 5/ 9 5/ 9 CAPE LOOKOUT 1800 53 20/ 2/ 5 1021.0 BEAUFORT LAB 1748 53 62 350/ 6/ 9 1020.3 30 SE NEW RVR IN 1708 51 340/ 8/ 14 1022.2 30 SE NEW RVR IN NOT AVBL 27 SE WRIGHTSVLE 1708 51 61 330/ 10/ 16 1021.7 5 SE WRIGHTSVLE 1708 53 58 330/ 8/ 14 1022.2 225 S CAPE HAT 1750 69 71 310/ 14/ 17 1019.5 7/ 7 7/ 7 41 SE CHARLESTON 1750 56 69 10/ 4/ 6 1022.7 3/10 3/10 $$

USA.gov is the U.S. government's official web portal to all federal, state and local government web resources and services.